Location: Courcelles
(49.2596°N, 1.7419°E)
Time: 07:17:09
(UTC+00:00)

CZ-2D R/B - Pass Details

Date: 17 November 2025
Orbit: 526 x 597 km, 98.0° (Epoch: 06 December)

Event Time Altitude Azimuth Distance (km) Brightness Sun altitude
Rises 17:45:34 0° 156° (SSE) 2,787 6.8 -15.6°
Reaches altitude 10° 17:47:42 10° 154° (SSE) 1,902 5.9 -15.9°
Maximum altitude 17:51:48 65° 73° (ENE) 653 3.4 -16.6°
Drops below altitude 10° 17:55:59 10° 351° (N) 1,945 6.1 -17.3°
Sets 17:58:11 0° 349° (N) 2,856 7.0 -17.6°
